Location: Detroit
(42.3310°N, 83.0460°W)
Time: 05:33:49
(UTC-05:00)

BlueWalker 3 - Pass Details

Date: 08 December 2022
Orbit: 499 x 517 km, 53.2° (Epoch: 01 February)

Event Time Altitude Azimuth Distance (km) Brightness Sun altitude
Rises 18:48:36 0° 308° (NW) 2,625 6.1 -19.5°
Reaches altitude 10° 18:50:50 10° 313° (NW) 1,733 5.1 -19.9°
Enters shadow 18:54:37 59° 25° (NNE) 589 2.0 -20.5°
